Voltar ao catálogo

COSMOS 2491 DEB

LostPO
NORAD 57565·DEBRIS·🇷🇺 Russia

Lançado Dec 25, 2013 de Plesetsk Cosmodrome

Loading…

Próximas Passagens (próximas 24 horas)

TLE

ObsoletoSource: Space-Track

Época: Dec 16, 2025, 02:13 UTC

1 57565U 13076BC  25350.09239388  .00000852  00000-0  60693-2 0  9993
2 57565  82.4790 289.8135 0018992  24.3735 335.8238 12.42978392118884

Acompanhe COSMOS 2491 DEB em tempo real com AllMySat

Download on the App Store